This demonstration page uses our WeatherBlox Daily Observations layout. Learn more.

Left ArrowRight Arrow

Hourly Observations for April 25, 2018

Temp ( °F °C ) Dew Point ( °F °C ) Humidity (%) Winds ( mph kmh ) Pressure ( in mb ) Visibility ( mi km ) Precip ( " mm )
12:51 am 00:51 Clear 66 18.9 15 -9.4 14 14 WNW 6 9 29.85 1011 10 16 0.00 0.00
1:51 am 01:51 Clear 64 17.8 15 -9.4 15 15 NNW 5 7 29.84 1010 10 16 0.00 0.00
2:51 am 02:51 Clear 67 19.4 14 -10 13 13 Calm 29.83 1010 10 16 0.00 0.00
3:51 am 03:51 Clear 58 14.4 14 -10 18 18 E 6 9 29.86 1011 10 16 0.00 0.00
4:51 am 04:51 Clear 58 14.4 15 -9.4 18 18 S 7 11 29.88 1012 10 16 0.00 0.00
5:51 am 05:51 Sunny 57 13.9 15 -9.4 19 19 NE 6 9 29.91 1013 10 16 0.00 0.00
6:51 am 06:51 Sunny 63 17.2 17 -8.3 17 17 ESE 3 6 29.92 1013 10 16 0.00 0.00
7:51 am 07:51 Sunny 72 22.2 16 -8.9 12 12 Calm 29.93 1013 10 16 0.00 0.00
8:51 am 08:51 Sunny 76 24.4 16 -8.9 10 10 S 6 9 29.92 1013 10 16 0.00 0.00
9:51 am 09:51 Sunny 81 27.2 18 -7.8 9 9 WSW 5 7 29.92 1013 10 16 0.00 0.00
10:51 am 10:51 Sunny 85 29.4 17 -8.3 8 8 W 6 9 29.90 1013 10 16 0.00 0.00
11:51 am 11:51 Sunny 88 31.1 17 -8.3 7 7 WSW 9 15 29.87 1012 10 16 0.00 0.00
12:51 pm 12:51 Sunny 90 32.2 13 -10.6 6 6 W 14 22 29.85 1011 10 16 0.00 0.00
1:51 pm 13:51 Sunny 90 32.2 14 -10 6 6 SSW 7 11 29.83 1010 10 16 0.00 0.00
2:51 pm 14:51 Sunny 92 33.3 15 -9.4 6 6 W 13 20 29.80 1009 10 16 0.00 0.00
3:51 pm 15:51 Sunny 92 33.3 11 -11.7 5 5 WNW 10 17 29.80 1009 10 16 0.00 0.00
4:51 pm 16:51 Sunny 92 33.3 9 -12.8 4 4 W 10 17 29.78 1009 10 16 0.00 0.00
5:51 pm 17:51 Sunny 90 32.2 11 -11.7 5 5 WNW 16 26 29.78 1008 10 16 0.00 0.00
6:51 pm 18:51 Sunny 86 30 14 -10 7 7 WNW 9 15 29.78 1008 10 16 0.00 0.00
7:51 pm 19:51 Clear 82 27.8 18 -7.8 9 9 WNW 9 15 29.78 1009 10 16 0.00 0.00
8:51 pm 20:51 Clear 77 25 18 -7.8 11 11 NW 10 17 29.80 1009 10 16 0.00 0.00
9:51 pm 21:51 Clear 76 24.4 16 -8.9 10 10 NW 10 17 29.80 1009 10 16 0.00 0.00
10:51 pm 22:51 Clear 73 22.8 16 -8.9 11 11 NW 10 17 29.80 1009 10 16 0.00 0.00
11:51 pm 23:51 Clear 73 22.8 16 -8.9 11 11 WNW 12 19 29.79 1009 10 16 0.00 0.00

Powered by AerisWeather